DL1NER Weather Reports


time (UTC)temp
C
wind
direction
speed
KPH
gust
KPH
rain 1hr
cm
rain 24hr
cm
rain mn
cm
humidity
%
barometer
mb
20260831234012 15 195 1.6 8.0 0.00 0.00 0.00 71 1019.1
20260831233012 15 198 0.0 3.2 0.00 0.00 0.00 70 1019.0
20260831232012 16 198 1.6 4.8 0.00 0.00 0.00 69 1019.1
20260831231012 16 198 1.6 4.8 0.00 0.00 0.00 69 1019.2
20260831230012 16 198 3.2 8.0 0.00 0.00 0.00 68 1019.2
20260831225012 16 252 3.2 8.0 0.00 0.00 0.00 67 1019.2
20260831224012 16 236 4.8 9.7 0.00 0.00 0.00 68 1019.3
20260831223011 16 236 4.8 14.5 0.00 0.00 0.00 67 1019.3
20260831222012 16 240 6.4 14.5 0.00 0.00 0.00 67 1019.2
20260831221011 16 215 6.4 19.3 0.00 0.00 0.00 67 1019.2
20260831220012 16 185 6.4 20.9 0.00 0.00 0.00 67 1019.0
20260831215012 16 238 6.4 16.1 0.00 0.86 0.86 67 1019.0
20260831214011 17 186 6.4 14.5 0.00 0.86 0.86 66 1018.8
20260831213011 17 231 4.8 11.3 0.00 0.86 0.86 65 1018.9
20260831212011 17 192 6.4 14.5 0.00 0.86 0.86 65 1018.8
20260831211012 17 222 8.0 16.1 0.00 0.86 0.86 64 1018.7
20260831210011 17 245 8.0 17.7 0.00 0.86 0.86 64 1018.6
20260831205011 17 254 11.3 27.4 0.00 0.86 0.86 63 1018.4
20260831204011 17 236 6.4 24.1 0.00 0.86 0.86 65 1018.3
20260831203011 17 231 6.4 17.7 0.00 0.86 0.86 65 1018.2
20260831202011 17 188 6.4 16.1 0.00 0.86 0.86 66 1018.2
20260831201011 16 217 6.4 16.1 0.00 0.86 0.86 66 1018.3
20260831200012 16 249 6.4 17.7 0.00 0.86 0.86 66 1018.2
20260831195011 16 223 4.8 14.5 0.00 0.86 0.86 67 1017.8
20260831194011 17 205 3.2 9.7 0.00 0.86 0.86 67 1017.8
20260831193011 17 221 3.2 9.7 0.00 0.86 0.86 65 1017.7
20260831192011 17 227 3.2 9.7 0.00 0.86 0.86 66 1017.6
20260831191010 17 231 4.8 14.5 0.00 0.86 0.86 65 1017.6
20260831190011 17 224 4.8 11.3 0.00 0.86 0.86 64 1017.4
20260831185011 17 220 4.8 12.9 0.00 0.86 0.86 64 1017.4
20260831184010 17 229 4.8 17.7 0.00 0.86 0.86 63 1017.4
20260831183010 18 231 8.0 14.5 0.00 0.86 0.86 62 1017.3
20260831182012 18 208 4.8 17.7 0.00 0.86 0.86 61 1017.1
20260831181011 18 248 6.4 17.7 0.00 0.86 0.86 59 1017.0
20260831180011 18 269 6.4 22.5 0.00 0.86 0.86 58 1016.8
20260831175010 18 207 6.4 16.1 0.00 0.86 0.86 58 1016.7
20260831174011 19 220 9.7 22.5 0.00 0.86 0.86 57 1016.6
20260831173010 20 243 14.5 37.0 0.00 0.86 0.86 57 1016.6
20260831172010 21 259 17.7 48.3 0.00 0.86 0.86 53 1016.3
20260831171010 21 200 11.3 30.6 0.00 0.86 0.86 52 1015.8
20260831170010 21 200 11.3 30.6 0.00 0.86 0.86 52 1015.8
20260831165017 21 230 8.0 22.5 0.00 0.86 0.86 52 1015.7
20260831164009 22 192 9.7 25.7 0.00 0.86 0.86 51 1015.6
20260831163011 22 192 9.7 25.7 0.00 0.86 0.86 51 1015.6
20260831162010 22 215 9.7 24.1 0.00 0.86 0.86 51 1015.7
20260831161017 22 224 11.3 24.1 0.00 0.86 0.86 51 1015.6
20260831160009 23 218 11.3 25.7 0.00 0.86 0.86 52 1015.4
20260831154011 23 5 8.0 32.2 0.00 0.86 0.86 52 1015.4
20260831153009 23 217 8.0 27.4 0.00 0.86 0.86 52 1015.3
20260831152009 23 202 9.7 29.0 0.00 0.86 0.86 50 1015.2
20260831150010 23 247 11.3 29.0 0.00 0.86 0.86 50 1015.2
20260831145009 23 212 11.3 29.0 0.00 0.86 0.86 49 1015.4
20260831143009 24 224 11.3 25.7 0.00 0.86 0.86 51 1015.3
20260831142014 24 224 11.3 25.7 0.00 0.86 0.86 51 1015.3
20260831141014 24 166 12.9 30.6 0.00 0.86 0.86 50 1015.5
20260831140013 24 215 11.3 29.0 0.00 0.86 0.86 48 1015.5
20260831135013 24 232 11.3 25.7 0.00 0.86 0.86 49 1015.4
20260831134013 24 247 12.9 29.0 0.00 0.86 0.86 50 1015.4
20260831133013 24 218 14.5 32.2 0.00 0.86 0.86 48 1015.4
20260831132013 24 203 14.5 37.0 0.00 0.86 0.86 51 1015.6
20260831131013 24 224 16.1 29.0 0.00 0.86 0.86 50 1015.5
20260831130013 24 226 12.9 25.7 0.00 0.86 0.86 53 1015.5
20260831125013 23 218 11.3 35.4 0.00 0.86 0.86 50 1015.6
20260831124013 23 213 11.3 27.4 0.00 0.86 0.86 55 1015.7
20260831123013 23 236 16.1 27.4 0.00 0.86 0.86 52 1015.6
20260831122013 23 200 11.3 27.4 0.00 0.86 0.86 52 1015.6
20260831121013 23 248 9.7 25.7 0.00 0.86 0.86 55 1015.6
20260831120013 22 252 11.3 29.0 0.00 0.86 0.86 53 1015.6
20260831115013 22 233 11.3 29.0 0.00 0.86 0.86 56 1015.7
20260831114013 21 232 8.0 19.3 0.00 0.86 0.86 56 1015.8
20260831113013 22 189 11.3 32.2 0.00 0.86 0.86 53 1015.8
20260831112012 22 194 12.9 29.0 0.00 0.86 0.86 51 1015.8
20260831111012 22 236 11.3 29.0 0.00 0.86 0.86 55 1015.9
20260831110013 22 181 11.3 30.6 0.00 0.86 0.86 54 1015.6
20260831105013 22 248 11.3 37.0 0.00 0.86 0.86 56 1015.8
20260831104013 22 201 12.9 27.4 0.00 0.86 0.86 63 1015.7
20260831103013 22 216 12.9 33.8 0.00 0.86 0.86 64 1015.9
20260831102012 22 297 12.9 29.0 0.00 0.86 0.86 69 1015.8
20260831101012 21 221 11.3 24.1 0.00 0.86 0.86 67 1016.0
20260831100012 21 258 14.5 30.6 0.00 0.86 0.86 69 1016.1
20260831095012 21 259 12.9 29.0 0.00 0.86 0.86 67 1016.3
20260831094012 21 221 11.3 30.6 0.00 0.86 0.86 75 1016.1
20260831093012 20 245 11.3 30.6 0.00 0.86 0.86 74 1016.1
20260831092012 20 263 9.7 27.4 0.00 0.86 0.86 73 1016.2
20260831091012 19 279 14.5 27.4 0.00 0.86 0.86 73 1016.1
20260831090012 20 274 11.3 25.7 0.00 0.86 0.86 76 1016.1
20260831085012 18 248 11.3 30.6 0.00 0.86 0.86 77 1016.1
20260831084012 18 250 14.5 30.6 0.00 0.86 0.86 76 1016.0
20260831083012 19 263 14.5 27.4 0.00 0.86 0.86 76 1015.9
20260831082012 19 188 11.3 29.0 0.00 0.86 0.86 81 1015.8
20260831081012 19 280 8.0 19.3 0.00 0.86 0.86 81 1015.8
20260831080012 18 228 9.7 20.9 0.00 0.86 0.86 84 1015.7
20260831075012 18 225 9.7 25.7 0.00 0.86 0.86 85 1015.7
20260831074012 18 250 9.7 25.7 0.00 0.86 0.86 86 1015.7
20260831073013 18 296 6.4 19.3 0.00 0.86 0.86 89 1015.7
20260831072011 17 301 9.7 20.9 0.00 0.86 0.86 88 1015.6
20260831071012 17 225 6.4 20.9 0.00 0.86 0.86 89 1015.5
20260831070012 17 256 11.3 24.1 0.00 0.86 0.86 90 1015.4
20260831065012 17 238 6.4 19.3 0.00 0.86 0.86 91 1015.3
20260831064011 16 223 4.8 19.3 0.00 0.86 0.86 92 1015.3
20260831063012 16 254 6.4 19.3 0.00 0.86 0.86 92 1015.4
20260831062012 16 217 4.8 12.9 0.00 0.86 0.86 91 1015.2
20260831061011 16 194 4.8 12.9 0.00 0.86 0.86 92 1014.9
20260831060012 16 196 6.4 19.3 0.00 0.86 0.86 92 1014.7
20260831055011 16 275 6.4 19.3 0.00 0.86 0.86 92 1014.6
20260831054011 16 278 6.4 16.1 0.00 0.86 0.86 92 1014.6
20260831053011 16 267 8.0 30.6 0.00 0.86 0.86 92 1014.5
20260831052011 16 232 4.8 19.3 0.00 0.86 0.86 92 1014.2
20260831051011 16 257 4.8 11.3 0.00 0.86 0.86 92 1014.3
20260831050011 16 219 3.2 6.4 0.00 0.86 0.86 92 1014.0
20260831045011 16 190 0.0 3.2 0.00 0.86 0.86 91 1014.0
20260831044011 16 190 0.0 3.2 0.00 0.86 0.86 91 1013.8
20260831043011 16 190 1.6 4.8 0.00 0.86 0.86 91 1013.6
20260831042011 16 190 1.6 8.0 0.03 0.86 0.86 91 1013.4
20260831041011 16 186 3.2 8.0 0.03 0.86 0.86 91 1013.4
20260831040011 16 180 1.6 6.4 0.03 0.86 0.86 91 1013.6
20260831035011 16 192 1.6 9.7 0.05 0.86 0.86 90 1013.6
20260831034010 16 191 1.6 6.4 0.10 0.86 0.86 90 1013.3
20260831033011 16 191 1.6 8.0 0.48 0.86 0.86 89 1013.3
20260831032011 16 192 3.2 8.0 0.84 0.84 0.84 88 1013.4
20260831031010 16 194 1.6 6.4 0.84 0.84 0.84 87 1013.5
20260831030010 16 194 4.8 11.3 0.84 0.84 0.84 86 1013.4
20260831025019 16 180 4.8 16.1 0.81 0.81 0.81 85 1013.6
20260831024010 16 240 4.8 14.5 0.76 0.76 0.76 83 1013.5
20260831023011 16 190 8.0 20.9 0.38 0.38 0.38 81 1014.0
20260831022010 16 144 1.6 4.8 0.00 0.00 0.00 79 1013.0
20260831021010 16 124 1.6 4.8 0.00 0.00 0.00 78 1012.0
20260831020010 16 124 1.6 4.8 0.00 0.00 0.00 79 1012.3
20260831015010 16 124 1.6 3.2 0.00 0.00 0.00 79 1012.5
20260831014010 16 124 0.0 3.2 0.00 0.00 0.00 79 1012.6
20260831013010 16 124 0.0 3.2 0.00 0.00 0.00 79 1012.6
20260831012011 16 124 1.6 6.4 0.00 0.00 0.00 81 1012.7
20260831011009 15 124 3.2 6.4 0.00 0.00 0.00 85 1012.7
20260831010010 15 124 3.2 6.4 0.00 0.00 0.00 86 1013.0
20260831005010 15 135 3.2 4.8 0.00 0.00 0.00 86 1013.2
20260831004010 15 135 3.2 4.8 0.00 0.00 0.00 86 1013.1
20260831003010 15 135 3.2 6.4 0.00 0.00 0.00 86 1013.1
20260831002010 15 136 1.6 4.8 0.00 0.00 0.00 86 1013.5
20260831001010 15 136 1.6 3.2 0.00 0.00 0.00 86 1013.6
20260831000010 15 136 1.6 4.8 0.00 0.00 0.00 85 1013.7
20260830235010 15 136 1.6 3.2 0.00 0.00 0.00 85 1013.7